Location: Lussas
(44.6119°N, 4.4726°E)
Time: 14:58:48
(UTC+00:00)

Cosmos 1844 Rocket - Pass Details

Date: 26 November 2020
Orbit: 824 x 845 km, 71.0° (Epoch: 28 January)

Event Time Altitude Azimuth Distance (km) Brightness Sun altitude
Rises 05:01:03 0° 181° (S) 3,368 6.0 -19.5°
Reaches altitude 10° 05:03:36 10° 173° (S) 2,442 5.3 -19.1°
Maximum altitude 05:08:45 39° 106° (ESE) 1,239 4.2 -18.2°
Drops below altitude 10° 05:13:58 10° 39° (NE) 2,469 5.5 -17.3°
Sets 05:16:33 0° 32° (NNE) 3,410 6.1 -16.8°
